TimeCDT,TemperatureF,Dew PointF,Humidity,Sea Level PressureIn,VisibilityMPH,Wind Direction,Wind SpeedMPH,Gust SpeedMPH,PrecipitationIn,Events,Conditions,WindDirDegrees,DateUTC
12:52 AM,37.9,30.9,76,30.05,10.0,NNW,9.2,-,N/A,,Overcast,340,2013-04-24 05:52:00
1:52 AM,37.0,30.9,79,30.05,10.0,NNW,8.1,-,N/A,,Overcast,330,2013-04-24 06:52:00
2:52 AM,37.0,30.9,79,30.04,10.0,NW,10.4,-,N/A,,Overcast,320,2013-04-24 07:52:00
3:52 AM,36.0,30.0,79,30.05,10.0,NW,8.1,-,N/A,,Overcast,320,2013-04-24 08:52:00
4:52 AM,35.1,30.0,82,30.06,8.0,NW,8.1,-,N/A,,Overcast,320,2013-04-24 09:52:00
5:52 AM,35.1,28.9,78,30.07,8.0,NW,6.9,-,N/A,,Overcast,320,2013-04-24 10:52:00
6:52 AM,34.0,28.9,82,30.09,7.0,WNW,11.5,-,N/A,,Overcast,300,2013-04-24 11:52:00
7:52 AM,34.0,28.9,82,30.11,10.0,WNW,10.4,-,N/A,,Mostly Cloudy,300,2013-04-24 12:52:00
8:52 AM,37.0,30.9,79,30.12,10.0,NW,11.5,-,N/A,,Scattered Clouds,320,2013-04-24 13:52:00
9:52 AM,39.9,32.0,73,30.12,10.0,NW,12.7,-,N/A,,Mostly Cloudy,310,2013-04-24 14:52:00
10:52 AM,42.1,28.9,60,30.12,10.0,WNW,13.8,-,N/A,,Scattered Clouds,300,2013-04-24 15:52:00
11:52 AM,45.0,30.0,56,30.12,10.0,WNW,12.7,19.6,N/A,,Scattered Clouds,290,2013-04-24 16:52:00
1:52 PM,48.0,30.9,52,30.11,10.0,West,12.7,-,N/A,,Clear,270,2013-04-24 18:52:00
2:52 PM,50.0,28.9,44,30.11,10.0,WSW,12.7,-,N/A,,Clear,250,2013-04-24 19:52:00
3:52 PM,51.1,28.0,41,30.10,10.0,West,15.0,21.9,N/A,,Clear,270,2013-04-24 20:52:00
4:52 PM,51.1,27.0,39,30.09,10.0,West,13.8,20.7,N/A,,Clear,260,2013-04-24 21:52:00
5:52 PM,51.1,28.9,43,30.10,10.0,West,17.3,-,N/A,,Clear,270,2013-04-24 22:52:00
6:52 PM,50.0,28.9,44,30.10,10.0,SW,13.8,-,N/A,,Partly Cloudy,230,2013-04-24 23:52:00
7:52 PM,46.9,28.0,48,30.10,10.0,SW,9.2,-,N/A,,Clear,220,2013-04-25 00:52:00
8:52 PM,46.0,27.0,47,30.11,10.0,SSW,10.4,-,N/A,,Clear,210,2013-04-25 01:52:00
9:52 PM,45.0,28.9,53,30.11,10.0,SSW,11.5,-,N/A,,Clear,200,2013-04-25 02:52:00
10:52 PM,45.0,30.0,56,30.11,10.0,SSW,13.8,-,N/A,,Clear,210,2013-04-25 03:52:00
11:52 PM,45.0,30.9,58,30.10,10.0,SSW,13.8,21.9,N/A,,Overcast,210,2013-04-25 04:52:00